TimeCST,TemperatureF,Dew PointF,Humidity,Sea Level PressureIn,VisibilityMPH,Wind Direction,Wind SpeedMPH,Gust SpeedMPH,PrecipitationIn,Events,Conditions,WindDirDegrees,DateUTC
12:15 AM,41.0,36.0,82,30.21,5.0,NNW,9.2,-,N/A,,Haze,330,2013-11-22 06:15:00
12:52 AM,41.0,35.1,79,30.24,6.0,NNW,10.4,-,N/A,,Haze,340,2013-11-22 06:52:00
1:05 AM,41.0,35.1,79,30.23,6.0,NNW,11.5,-,N/A,,Haze,340,2013-11-22 07:05:00
1:52 AM,39.9,35.1,83,30.27,7.0,NW,11.5,-,N/A,,Overcast,320,2013-11-22 07:52:00
2:52 AM,39.9,35.1,83,30.27,6.0,NNW,11.5,-,N/A,,Haze,340,2013-11-22 08:52:00
3:52 AM,37.9,36.0,93,30.29,3.0,NNW,10.4,-,0.00,Rain,Light Rain,340,2013-11-22 09:52:00
4:02 AM,37.9,35.1,89,30.27,4.0,North,11.5,-,0.01,Rain,Light Rain,350,2013-11-22 10:02:00
4:32 AM,35.1,33.1,92,30.28,5.0,NNW,16.1,-,0.02,Rain-Snow,Light Rain,340,2013-11-22 10:32:00
4:52 AM,35.1,32.0,89,30.32,5.0,North,8.1,-,0.03,Rain-Snow,Light Rain,350,2013-11-22 10:52:00
5:13 AM,35.1,32.0,89,30.30,7.0,North,11.5,-,0.00,Snow,Light Snow,350,2013-11-22 11:13:00
5:52 AM,34.0,30.9,89,30.33,8.0,North,9.2,18.4,0.00,Snow,Light Snow,360,2013-11-22 11:52:00
6:03 AM,34.0,30.0,85,30.31,7.0,North,12.7,-,0.00,Snow,Light Snow,10,2013-11-22 12:03:00
6:43 AM,33.1,30.0,89,30.34,9.0,NNW,10.4,-,0.00,,Overcast,340,2013-11-22 12:43:00
6:52 AM,33.1,28.9,85,30.37,8.0,NNW,12.7,-,0.00,Snow,Light Snow,340,2013-11-22 12:52:00
7:42 AM,32.0,28.0,85,30.38,8.0,North,15.0,-,0.00,Snow,Light Snow,350,2013-11-22 13:42:00
7:52 AM,32.0,28.0,85,30.41,9.0,NNW,12.7,-,0.00,Snow,Light Snow,330,2013-11-22 13:52:00
8:45 AM,32.0,26.1,79,30.40,6.0,NNW,16.1,-,0.00,Snow,Light Snow,330,2013-11-22 14:45:00
8:52 AM,32.0,26.1,79,30.43,7.0,NNW,12.7,23.0,0.00,Snow,Light Snow,330,2013-11-22 14:52:00
9:52 AM,32.0,25.0,75,30.45,10.0,NNW,15.0,23.0,0.00,,Overcast,330,2013-11-22 15:52:00
10:52 AM,34.0,26.1,73,30.44,10.0,North,10.4,19.6,N/A,,Scattered Clouds,350,2013-11-22 16:52:00
11:52 AM,36.0,25.0,64,30.43,10.0,NW,11.5,-,N/A,,Mostly Cloudy,320,2013-11-22 17:52:00
12:52 PM,37.0,24.1,59,30.44,10.0,NW,11.5,-,N/A,,Mostly Cloudy,320,2013-11-22 18:52:00
1:52 PM,37.0,23.0,57,30.45,10.0,NW,12.7,-,N/A,,Mostly Cloudy,320,2013-11-22 19:52:00
2:52 PM,37.0,21.9,54,30.47,10.0,WNW,10.4,-,N/A,,Mostly Cloudy,290,2013-11-22 20:52:00
3:52 PM,35.1,21.0,57,30.48,10.0,WNW,12.7,-,N/A,,Mostly Cloudy,300,2013-11-22 21:52:00
4:52 PM,33.1,21.0,61,30.48,10.0,West,8.1,-,N/A,,Scattered Clouds,280,2013-11-22 22:52:00
5:52 PM,32.0,21.9,66,30.46,10.0,WSW,4.6,-,N/A,,Partly Cloudy,250,2013-11-22 23:52:00
6:52 PM,30.9,19.9,64,30.46,10.0,West,6.9,-,N/A,,Partly Cloudy,270,2013-11-23 00:52:00
7:52 PM,30.9,19.9,64,30.45,10.0,West,5.8,-,N/A,,Clear,260,2013-11-23 01:52:00
8:52 PM,30.0,18.0,61,30.44,10.0,West,9.2,-,N/A,,Partly Cloudy,270,2013-11-23 02:52:00
9:52 PM,28.9,17.1,61,30.43,10.0,West,9.2,-,N/A,,Partly Cloudy,270,2013-11-23 03:52:00
10:52 PM,28.9,15.1,56,30.43,10.0,West,9.2,-,N/A,,Clear,270,2013-11-23 04:52:00
11:52 PM,28.0,14.0,56,30.43,10.0,West,6.9,-,N/A,,Partly Cloudy,270,2013-11-23 05:52:00